Home   Weather   Austin   Past weeks

Flag for USA Past Weather in Austin, Texas, USA — Yesterday and Last 2 Weeks

Now
75 °F

Overcast.


Feels Like: 75 °F
Forecast: 62 / 88 °F
Wind: 7 mph from North

Location: Camp Mabry / Austin City

Current Time: Apr 26, 2017 at 5:22:58 am

Latest Report: Apr 26, 2017 at 4:51 am


Visibility: 10 mi

Pressure: 29.41 "Hg

Humidity: 82%

Dew Point: 69 °F

Location of AustinLocation

Past Weather in Austin — Graph

°F

Austin Temperature Yesterday

Maximum temperature yesterday: 88 °F (at 3:51 pm)
Minimum temperature yesterday: 63 °F (at 2:51 am)
Average temperature yesterday: 73 °F

High & Low Weather Summary for the Past Weeks

 TemperatureHumidityPressure
High88 °F (Apr 25, 3:51 pm)100% (Apr 11, 4:51 am)30.22 "Hg (Apr 11, 4:51 am)
Low49 °F (Apr 24, 5:51 am)29% (Apr 23, 4:51 pm)29.42 "Hg (Apr 26, 3:51 am)
Average71 °F75%29.99 "Hg
* Reported Apr 11 3:17 am — Apr 26 3:51 am, Austin, Weather by CustomWeather, © 2017

Note: Actual official high and low records may vary slightly from our data, if they occured in-between our weather recording intervals... More about our weather records

Advertising

Austin Weather History for the Previous 24 Hours

Scroll right to see more
 ConditionsComfort  
Time TempWeatherWind HumidityBarometerVisibility
3:51 am
Wed, Apr 26
75 °FOvercast.7 mph85%29.42 "Hg9 mi
2:51 am75 °FOvercast.7 mph85%29.44 "Hg10 mi
1:51 am75 °FOvercast.7 mph85%29.45 "Hg8 mi
12:51 am75 °FOvercast.8 mph85%29.47 "Hg9 mi
11:51 pm
Tue, Apr 25
76 °FOvercast.8 mph82%29.48 "Hg10 mi
10:51 pm76 °FOvercast.8 mph82%29.49 "Hg10 mi
9:51 pm79 °FOvercast.8 mph74%29.48 "Hg10 mi
9:01 pm78 °FMostly cloudy.9 mph76%29.51 "Hg10 mi
7:51 pm82 °FSunny.8 mph65%29.46 "Hg10 mi
6:51 pm85 °FPartly sunny.7 mph59%29.46 "Hg10 mi
5:51 pm87 °FScattered clouds.9 mph55%29.46 "Hg10 mi
3:51 pm88 °FScattered clouds.10 mph54%29.49 "Hg10 mi
2:51 pm85 °FPartly sunny.9 mph59%29.53 "Hg10 mi
2:05 pm84 °FPartly sunny.10 mph59%29.59 "Hg10 mi
12:51 pm80 °FPartly sunny.7 mph64%29.60 "Hg10 mi
11:51 am76 °FOvercast.8 mph74%29.62 "Hg10 mi
11:02 am73 °FOvercast.6 mph76%29.66 "Hg10 mi
9:51 am69 °FOvercast.7 mph84%29.63 "Hg10 mi
9:06 am68 °FOvercast.8 mph87%29.66 "Hg10 mi
8:51 am68 °FLow clouds.6 mph87%29.63 "Hg10 mi
7:51 am66 °FLow clouds.6 mph87%29.62 "Hg10 mi
6:51 am64 °FOvercast.6 mph87%29.60 "Hg10 mi
5:51 am63 °FOvercast.3 mph87%29.61 "Hg10 mi
5:30 am63 °FPassing clouds.3 mph84%29.65 "Hg10 mi
Weather by CustomWeather, © 2017

See weather overviewHow to use our weather pages